Flag for United Kingdom Weather past 2 weeks in Dundee, Scotland, United Kingdom

Now
61 °F

Partly sunny.


Feels Like: 61 °F
Forecast: 49 / 61 °F
Wind: 3 mph from Southwest

Location: Dundee / Riverside

Current Time: Sep 19, 2014 at 5:07:30 PM

Latest Report: Sep 19, 2014 at 4:20 PM


Visibility: N/A

Pressure: 29.95 "Hg

Humidity: 88%

Dew point: 57 °F

Location of DundeeLocation

Historic Weather in Dundee — Graph

°F

Dundee temperature yesterday

Maximum temperature yesterday: 61 °F (at 9:20 AM)
Minimum temperature yesterday: 57 °F (at 6:50 AM)
Average temperature yesterday: 59 °F

Past Weeks' High & Low Weather Summary

 TemperatureHumidityPressure
High64 °F (Sep 4, 3:20 PM)100% (Sep 5, 6:20 AM)30.39 "Hg (Sep 5, 6:20 AM)
Low50 °F (Sep 11, 9:50 AM)59% (Sep 7, 1:20 PM)29.92 "Hg (Sep 6, 3:50 PM)
Average59 °F87%30.11 "Hg
* Reported Sep 4 3:20 PM — Sep 19 3:50 PM, Dundee, Weather by CustomWeather, © 2014

Note: Actual official high and low records may vary slightly from our data, if they occured in-between our weather recording intervals... More about our weather records

Advertising

Dundee weather history for previous 24 hours

 ConditionsComfort  
Time TempWeatherWind HumidityBarometerVisibility
3:50 PM
Sep 19
59 °FPartly sunny.3 mph88%29.95 "HgN/A
3:20 PM59 °FPartly sunny.1 mph88%29.95 "HgN/A
2:50 PM61 °FPartly sunny.1 mph88%29.95 "HgN/A
2:20 PM59 °FPartly sunny.1 mph88%29.95 "HgN/A
1:50 PM59 °FPartly sunny.No wind88%29.95 "Hg6 mi
1:20 PM59 °FPartly sunny.1 mph88%29.95 "Hg6 mi
12:50 PM57 °FBroken clouds.No wind94%29.95 "Hg4 mi
12:20 PM57 °FBroken clouds.1 mph94%29.95 "Hg4 mi
11:50 AM57 °FPartly sunny.2 mph94%29.95 "Hg4 mi
11:20 AM57 °FBroken clouds.2 mph94%29.95 "Hg4 mi
10:50 AM59 °FBroken clouds.3 mph94%29.95 "Hg3 mi
10:20 AM57 °FBroken clouds.3 mph94%29.98 "Hg3 mi
9:50 AM57 °FBroken clouds.3 mph94%29.98 "Hg3 mi
9:20 AM55 °FPartly sunny.3 mph94%29.98 "Hg3 mi
8:50 AM57 °FPartly sunny.2 mph100%29.98 "Hg3 mi
8:20 AM57 °FPartly sunny.1 mph100%29.95 "Hg3 mi
7:50 AM55 °FDrizzle. Partly sunny.3 mph100%29.95 "Hg3 mi
6:50 AM55 °FPassing clouds.2 mph100%29.95 "Hg3 mi
6:20 AM55 °FPassing clouds.5 mph100%29.95 "Hg3 mi
9:50 PM
Sep 18
57 °FFog.8 mph100%29.98 "Hg2 mi
9:20 PM57 °FFog.8 mph100%29.98 "Hg2 mi
8:50 PM59 °FLight rain. Fog.7 mph94%29.98 "Hg2 mi
8:20 PM59 °FRain. Fog.7 mph94%29.98 "Hg1 mi
7:50 PM59 °FFog.8 mph100%29.98 "Hg1 mi
7:20 PM57 °FPartly sunny.7 mph100%29.95 "Hg2 mi
6:50 PM59 °FLight rain. Partly sunny.7 mph94%29.95 "Hg2 mi
6:20 PM59 °FFog.8 mph94%29.95 "Hg2 mi
5:50 PM59 °FFog.8 mph94%29.95 "Hg1 mi
5:20 PM59 °FFog.8 mph100%29.95 "Hg1 mi
Weather by CustomWeather, © 2014

See weather overviewHow to use our weather pages